Pasco, WA
on Wednesday, February 6, 2013

Wednesday
Previous Day Next Day
Daily Summary
 ActualAverageRecord
Temperature
Mean Temperature °F 38°F  
Max Temperature 55°F 46°F 59°F (1999)
Min Temperature 36°F 29°F 0°F (1989)
Degree Days
Heating Degree Days 19 28  
Month to date heating degree days 149 168  
Since 1 July heating degree days 3060 3319  
Cooling Degree Days 0 0  
Month to date cooling degree days 0 0  
Year to date cooling degree days 0 0  
Moisture
Dew Point 34°F   
Average Humidity 65    
Maximum Humidity 85    
Minimum Humidity 45    
Precipitation
Precipitation 0.00 in in 0.24 in (1951)
Month to date precipitation T  
Year to date precipitation 0.36  
Snow
Snow 0.00 in in in ()
Snow Depth 0.00 in   
Wind
Wind Speed 11 mph   
Max Wind Speed 22 mph   
Max Gust Speed 26 mph   
Visibility 10 miles   
Events     

Key: T is trace of precipitation, MM is missing value
Source: NWS Daily Summary
Time(PST)TemperatureDew PointHumidity Pressure Visibility Wind DirectionWind SpeedGust SpeedPrecipitationEvents Conditions
12:53 AM 45.0°F 34.0°F 65% 30.01 in 10.0 miles WSW 17.3 mph - N/A   Clear
1:53 AM 44.1°F 34.0°F 68% 30.03 in 10.0 miles SSW 6.9 mph - N/A   Clear
2:53 AM 43.0°F 35.1°F 74% 30.03 in 10.0 miles SSW 12.7 mph - N/A   Partly Cloudy
3:53 AM 44.1°F 34.0°F 68% 30.04 in 10.0 miles SW 11.5 mph - N/A   Scattered Clouds
4:53 AM 43.0°F 34.0°F 71% 30.04 in 10.0 miles SW 10.4 mph - N/A   Partly Cloudy
5:53 AM 42.1°F 33.1°F 70% 30.05 in 10.0 miles WSW 8.1 mph - N/A   Partly Cloudy
6:53 AM 44.1°F 33.1°F 65% 30.06 in 10.0 miles WSW 20.7 mph 26.5 mph N/A   Clear
7:53 AM 44.1°F 33.1°F 65% 30.08 in 10.0 miles SSW 6.9 mph - N/A   Clear
8:53 AM 46.9°F 34.0°F 61% 30.09 in 10.0 miles SSW 10.4 mph - N/A   Clear
9:53 AM 50.0°F 34.0°F 54% 30.10 in 10.0 miles SW 13.8 mph - N/A   Clear
10:53 AM 52.0°F 32.0°F 47% 30.10 in 10.0 miles WSW 16.1 mph 26.5 mph N/A   Clear
11:53 AM 52.0°F 33.1°F 49% 30.09 in 10.0 miles SW 17.3 mph 23.0 mph N/A   Clear
12:53 PM 52.0°F 33.1°F 49% 30.08 in 10.0 miles SW 13.8 mph 21.9 mph N/A   Clear
1:53 PM 54.0°F 32.0°F 43% 30.06 in 10.0 miles SW 13.8 mph - N/A   Clear
2:53 PM 54.0°F 32.0°F 43% 30.05 in 10.0 miles SW 9.2 mph - N/A   Clear
3:53 PM 52.0°F 34.0°F 50% 30.03 in 10.0 miles WSW 3.5 mph - N/A   Clear
4:53 PM 50.0°F 34.0°F 54% 30.01 in 10.0 miles ESE 4.6 mph - N/A   Scattered Clouds
5:53 PM 45.0°F 36.0°F 71% 30.00 in 10.0 miles East 5.8 mph - N/A   Unknown
6:53 PM 45.0°F 35.1°F 68% 29.99 in 10.0 miles East 3.5 mph - N/A   Clear
7:53 PM 43.0°F 35.1°F 74% 29.98 in 10.0 miles ESE 3.5 mph - N/A   Clear
8:53 PM 41.0°F 34.0°F 76% 29.96 in 10.0 miles SE 3.5 mph - N/A   Clear
9:53 PM 39.9°F 33.1°F 77% 29.94 in 10.0 miles Calm Calm - N/A   Clear
10:53 PM 37.9°F 33.1°F 83% 29.91 in 10.0 miles Calm Calm - N/A   Clear
11:53 PM 37.0°F 33.1°F 86% 29.91 in 10.0 miles NW 5.8 mph - N/A   Clear
Moon Phase
Feb. 06 Feb. 10 Feb. 17 Feb. 25 Mar. 04
Sunrise:07:12 AM (PST) Moon Rise:04:07 AM (PST)2/6
Sunset:05:09 PM (PST) Moon Set:01:26 PM (PST)2/6

Copyright © 2014 The Weather Underground, Inc.